Theta_e
296 295 295 294 294 294 294 293 292 291 291 290 289 288 288 287 286 285 285 285 284 284 284 284 285 286 287 287 288 288 289 290 290 291 291 292 292 293
292 293 294 294 293 292 292 291 291 290 289 288 287 286 285 284 283 283 283 283 283 283 283 284 284 285 286 286 286 287 287 288 289 290 290 291 291 291
292 293 293 292 291 290 290 290 289 288 287 286 285 284 283 282 283 283 282 282 282 283 283 283 283 284 284 285 285 286 286 287 287 288 289 290 290 290
292 291 291 290 290 289 289 288 287 286 285 285 284 283 282 281 281 281 281 281 281 282 282 282 282 283 283 283 284 284 284 284 286 287 288 289 289 289
291 291 291 290 289 288 287 287 286 286 284 284 283 282 281 281 281 281 281 281 282 281 281 281 282 282 283 284 284 284 284 285 285 287 287 287 288 287
291 291 290 289 287 286 286 286 285 284 284 283 282 281 279 280 281 281 281 281 280 280 281 281 281 281 282 282 283 283 283 284 285 285 287 287 287 286
291 291 290 286 285 286 286 285 284 284 283 282 281 279 279 280 280 280 280 280 280 281 282 283 283 283 283 283 283 283 283 284 285 286 285 287 287 287
292 291 289 286 285 285 285 285 284 284 283 281 279 278 279 280 280 280 280 280 281 282 282 283 283 283 284 283 283 283 284 284 286 287 288 287 287 287
291 290 289 288 285 285 285 284 284 283 282 280 279 279 279 279 279 279 280 281 282 281 281 282 283 283 284 284 284 284 284 284 285 286 287 287 286 286
291 290 288 287 285 285 284 284 283 282 281 280 279 278 278 279 279 280 281 281 281 281 281 282 283 284 284 284 284 285 285 285 285 285 285 286 285 285
290 289 287 286 285 284 284 283 282 281 281 280 279 278 278 279 280 280 280 280 280 281 282 282 283 284 284 284 284 284 285 285 285 286 285 285 285 285
289 288 287 285 284 284 283 282 281 281 281 280 280 280 278 278 278 279 279 279 280 280 281 282 284 285 284 284 284 284 284 284 284 285 286 286 286 286
288 288 286 285 284 283 283 282 281 281 281 280 280 279 279 279 278 278 279 279 279 280 281 282 283 284 284 285 285 285 284 284 284 285 287 286 286 286
288 287 287 286 284 283 282 281 281 281 280 280 280 280 279 279 278 278 278 279 280 280 281 282 283 283 284 284 285 285 284 284 285 286 287 287 287 286
288 287 287 286 285 283 282 282 281 281 281 280 280 280 279 279 278 278 278 279 279 280 281 282 283 283 284 285 285 285 284 285 286 287 287 287 287 287
288 288 287 285 285 284 283 282 282 281 281 280 280 280 279 279 278 278 278 278 278 279 280 281 282 283 284 284 284 285 285 285 286 286 287 288 288 288
288 287 286 285 285 284 283 283 282 282 281 280 280 280 280 279 278 278 278 277 278 278 280 281 282 282 284 285 285 285 285 285 286 287 287 287 289 288
287 287 286 286 285 284 283 282 282 282 281 281 281 280 280 279 278 278 277 277 277 278 278 279 280 282 284 284 284 285 285 286 285 287 287 287 287 288
288 287 286 285 284 284 283 282 282 282 281 281 281 281 280 279 278 278 277 277 277 277 277 278 279 281 282 283 284 284 285 286 286 287 286 286 287 287
287 286 286 286 285 284 282 282 282 281 281 281 281 281 280 279 278 278 277 277 277 277 276 279 280 281 282 283 283 284 285 286 286 286 286 286 286 287
286 287 287 286 285 283 282 282 282 282 282 282 281 281 280 279 278 277 277 277 277 277 276 278 280 282 283 283 284 284 284 285 285 285 286 285 285 286
286 286 287 287 285 284 282 282 282 282 282 282 282 282 280 280 278 278 277 277 277 277 276 276 279 281 282 283 283 284 284 283 284 284 285 286 286 286
286 286 287 287 285 285 284 282 282 282 282 282 282 282 281 280 279 278 277 277 277 277 277 277 278 280 280 281 282 283 283 283 284 284 284 284 285 285
Wind_Speed
26 28 27 24 21 19 15 14 13 14 28 24 19 27 31 33 34 34 36 38 39 38 36 28 23 23 24 24 25 26 27 27 28 30 30 30 31 27
26 21 17 16 17 19 19 17 17 20 25 28 32 35 36 36 35 34 34 32 31 27 24 24 25 23 22 23 24 25 27 27 28 29 30 29 29 28
21 16 16 17 15 14 14 17 20 23 28 34 33 36 33 33 33 28 24 23 22 23 24 23 24 24 23 23 23 23 23 24 26 27 30 31 29 28
20 19 17 15 17 20 22 24 25 24 26 33 33 30 31 31 25 23 22 22 22 23 24 25 24 24 24 25 25 25 27 27 26 28 28 30 30 30
21 19 19 20 19 22 23 23 24 27 25 28 31 32 33 27 26 24 23 23 23 28 31 28 25 22 20 21 22 23 24 25 27 27 31 32 31 31
20 20 21 22 25 23 23 25 27 24 25 28 32 34 31 28 24 24 25 27 33 24 20 18 16 18 22 24 25 25 26 26 26 30 29 32 33 31
22 22 23 24 24 23 25 23 24 24 27 29 32 31 30 28 25 27 30 33 26 22 25 24 20 16 19 20 21 21 23 24 27 27 29 27 29 28
23 23 23 22 23 23 23 22 22 24 26 29 29 28 27 26 29 31 31 27 29 24 26 23 22 21 20 18 19 18 18 21 20 17 18 22 23 22
23 24 23 23 22 23 24 21 22 23 24 25 26 24 27 28 28 23 22 23 26 27 28 31 24 23 19 18 17 17 19 19 18 16 11 12 17 19
25 26 21 24 23 24 22 23 22 22 23 21 20 21 20 20 19 19 22 22 26 27 23 30 27 28 24 17 11 8 8 12 17 20 20 19 19 19
24 23 21 24 24 22 22 23 22 21 20 17 15 15 16 15 15 18 20 24 30 29 22 23 33 29 20 16 8 6 10 14 16 19 22 23 21 20
21 22 21 22 21 22 22 21 22 19 16 15 12 14 13 16 16 15 17 20 22 27 21 30 28 22 21 18 13 17 15 16 17 19 19 20 20 21
21 22 21 21 20 20 20 20 19 17 14 14 15 16 17 21 17 15 16 17 19 22 22 19 25 21 21 24 24 20 16 17 18 19 16 18 18 19
24 22 22 21 19 18 17 18 17 15 14 14 17 18 20 24 20 19 17 15 15 19 20 16 19 19 22 24 26 21 15 12 17 16 12 16 15 15
24 24 22 21 19 16 15 17 16 16 14 15 17 19 21 23 20 18 14 14 16 15 13 14 15 18 20 18 20 16 14 14 14 10 9 11 11 10
25 26 22 21 21 20 19 18 17 15 16 16 18 19 22 23 18 15 17 18 18 17 7 8 11 15 20 13 12 11 10 12 12 14 8 7 12 12
24 25 25 25 24 23 22 20 18 15 18 17 17 20 23 21 17 14 15 16 16 17 16 11 10 12 12 9 10 9 9 9 7 11 4 4 2 4
26 25 28 28 26 24 23 21 19 15 17 17 17 19 23 20 16 14 13 14 16 15 17 17 16 14 9 10 10 9 6 11 5 4 4 5 5 4
32 29 27 27 26 25 25 24 21 15 15 17 16 19 22 16 13 13 13 14 14 16 15 14 12 14 15 16 9 12 10 11 2 1 4 4 10 1
31 31 30 28 26 24 22 21 19 16 16 15 16 19 19 14 12 13 12 14 14 16 16 11 11 11 14 15 12 8 8 7 5 4 4 6 5 6
27 31 31 27 24 23 20 18 19 20 17 16 16 18 16 14 11 12 12 11 12 14 15 12 12 10 6 8 6 4 6 5 3 4 3 3 3 2
26 26 29 27 22 20 20 19 19 20 19 19 18 18 17 14 12 13 11 12 11 13 13 11 8 7 6 7 9 4 7 6 5 4 3 1 1 2
24 25 24 25 21 20 18 20 21 21 20 20 19 18 17 13 11 13 11 10 11 11 10 9 7 5 7 9 8 6 4 3 5 5 4 2 3 4
Wind_Direction
306 301 302 304 301 290 280 271 289 306 305 311 306 307 305 304 301 297 294 294 295 298 299 297 294 292 288 285 281 279 275 273 271 270 269 265 264 273
311 309 308 299 299 300 299 294 294 296 296 300 304 307 309 307 305 302 301 300 300 299 295 291 293 292 288 286 282 279 277 274 270 267 268 262 261 265
312 299 295 294 294 291 289 290 294 296 297 300 307 309 308 310 309 304 305 306 303 300 298 295 290 286 284 285 286 286 281 283 273 264 261 259 260 264
303 292 290 289 294 296 296 298 299 302 306 308 310 312 313 316 316 311 309 309 308 306 303 298 295 292 285 283 285 286 287 283 281 267 261 257 258 265
302 295 294 291 290 294 296 298 298 301 307 310 311 315 315 317 316 313 313 312 312 311 309 300 288 289 287 282 282 284 291 286 271 274 264 259 259 263
295 291 291 291 296 294 294 296 301 306 312 315 313 313 314 318 319 321 321 320 318 322 329 333 313 287 285 285 281 280 283 283 283 265 270 264 257 263
288 287 292 299 295 293 296 300 300 310 315 315 312 311 313 316 319 318 315 321 319 327 337 332 330 315 303 294 281 280 279 291 292 264 259 265 256 268
282 285 290 300 296 294 297 300 305 311 313 314 310 308 307 307 311 312 315 318 320 331 329 324 334 323 323 303 291 284 285 293 293 276 250 254 261 265
286 285 288 298 295 292 295 296 302 304 309 309 306 304 304 309 311 315 317 314 313 311 322 318 324 321 329 315 310 295 284 280 277 288 243 251 261 268
285 278 290 296 292 288 289 294 299 307 310 307 303 305 305 310 310 310 314 308 302 308 323 315 326 320 319 314 309 333 325 308 289 274 267 262 271 277
289 283 291 297 290 284 287 294 302 310 307 307 305 313 310 300 297 299 304 308 308 312 327 320 332 329 325 321 302 295 309 305 309 281 264 264 267 268
289 286 291 297 285 282 287 295 301 308 305 306 305 318 321 322 304 296 304 309 310 315 323 328 338 341 322 326 314 312 302 298 301 306 270 257 257 263
282 284 287 292 291 283 285 293 304 303 303 316 323 325 330 332 324 311 299 299 303 299 310 322 327 327 325 310 308 315 307 304 307 311 269 257 256 259
278 279 279 285 291 286 286 298 294 294 302 318 322 324 329 331 326 321 316 305 295 297 307 310 317 318 317 307 302 309 308 309 311 306 265 259 254 249
277 275 272 279 284 284 285 292 284 286 297 307 315 321 323 325 323 321 317 307 303 296 294 294 309 314 320 313 304 305 317 334 333 325 291 261 261 250
264 261 266 273 273 276 283 291 281 290 293 296 308 316 319 320 323 323 322 324 326 331 315 297 305 318 324 322 309 301 311 321 334 343 297 305 315 235
273 270 258 265 274 273 278 287 277 280 285 287 300 309 317 317 323 324 327 334 335 336 334 328 323 339 331 325 322 316 312 315 313 336 346 348 2 211
266 268 262 267 272 275 281 281 272 270 278 281 292 306 314 315 317 325 327 337 340 338 336 332 333 341 6 18 17 1 353 331 297 350 6 341 326 33
263 263 268 270 273 275 278 278 262 261 271 276 289 302 310 309 319 325 326 333 342 348 352 345 345 348 353 354 2 4 353 17 277 281 347 3 15 323
274 263 271 273 273 273 273 266 250 252 265 281 290 299 302 304 319 322 319 328 340 347 356 1 355 357 351 352 337 3 6 20 43 23 355 352 359 39
275 275 271 271 273 271 265 257 246 247 257 271 284 297 299 303 315 316 312 319 332 345 353 357 359 1 18 27 27 14 22 17 5 15 352 358 33 61
278 278 277 267 268 269 259 248 245 247 257 260 273 289 298 293 308 307 308 309 327 339 346 348 346 355 358 3 20 33 12 12 15 12 18 58 25 359
284 280 279 261 260 262 260 251 246 252 259 255 265 281 291 284 297 295 299 299 318 334 341 349 346 337 2 4 347 322 315 9 25 26 39 46 51 56